Lid_Strength_Index
-0 -1 -1 -1 -1 -1 -0 -0 0 0 -0 -0 -1 -1 -1 -1 -1 2 5 3 1 -2 -2 1 2 3 2 2 1 1 10 12 10 9 8 5 6 4 4 5 4 4 4 4 3
-0 -1 -1 -1 -1 -0 -0 0 0 0 -0 -0 -1 -1 -1 -1 2 4 2 -1 -2 -3 1 3 4 3 4 3 4 6 10 9 6 6 7 6 6 5 6 6 6 5 4 3 3
-1 -1 -1 -0 0 0 0 1 0 -0 -0 -0 -1 -1 -0 -0 4 4 -2 -1 -3 -2 1 2 3 4 4 4 5 5 9 6 6 5 6 6 6 6 7 8 7 6 6 4 4
-1 -1 -0 0 0 1 1 0 0 -0 -0 -0 -0 -0 -1 1 9 3 -3 -2 -3 -0 2 3 3 4 5 7 4 7 6 5 5 5 5 6 5 6 5 6 4 5 7 7 4
-1 -0 0 1 1 1 1 0 -0 -0 -0 -0 -0 -0 1 4 6 2 -2 -2 1 2 3 4 5 5 7 6 6 7 6 5 5 5 5 5 6 6 6 4 4 3 4 7 7
-0 0 1 1 1 1 1 0 0 -0 -0 -0 -0 0 2 6 3 2 2 2 2 2 3 3 5 4 5 6 7 6 6 6 5 5 5 6 6 6 5 4 4 4 5 5 5
0 1 1 1 1 1 1 1 0 -0 0 0 0 1 3 5 2 2 2 2 2 2 3 3 3 4 4 6 4 5 8 7 6 6 6 5 8 8 5 4 5 5 5 5 4
1 1 1 1 1 1 1 1 -0 1 1 0 0 2 5 2 1 2 2 3 2 2 2 1 2 4 5 4 6 8 8 11 7 6 6 6 11 7 5 5 6 5 5 4 4
1 1 1 1 1 1 1 1 -0 0 0 0 2 3 6 2 4 3 2 4 3 3 2 2 3 5 5 8 9 9 12 11 9 6 7 8 10 7 5 5 6 6 5 5 4
1 1 1 1 1 1 1 1 -0 1 1 1 2 6 5 6 4 3 2 3 4 4 5 5 5 7 8 9 14 12 11 10 10 8 8 9 9 7 6 6 6 6 6 5 5
1 1 1 1 1 1 2 3 5 6 4 6 6 7 6 4 3 4 3 4 4 5 8 7 9 10 9 8 8 8 9 10 9 7 9 9 9 8 7 7 7 7 6 5 5
1 1 1 1 2 2 3 5 5 4 7 5 5 6 5 4 7 5 3 7 7 9 8 9 10 9 8 8 8 8 10 11 9 7 9 9 10 8 7 7 7 7 6 6 5
1 1 1 1 2 4 3 4 3 3 6 7 6 6 5 5 7 6 6 7 9 9 9 11 9 8 9 9 9 9 10 11 12 9 8 10 11 9 7 7 6 6 6 6 5
1 1 1 1 3 3 4 2 2 2 9 9 7 6 5 6 8 5 5 7 8 9 9 10 9 9 9 9 9 11 8 9 10 12 15 10 17 12 10 9 8 7 7 6 6
1 1 2 2 4 4 3 1 1 2 15 8 7 5 6 7 7 7 5 7 10 10 9 10 10 10 10 10 8 10 7 9 10 12 12 12 15 13 10 12 10 8 7 6 5
0 1 2 4 4 3 2 1 2 10 15 9 7 8 9 8 7 7 7 6 7 9 9 10 9 9 10 9 8 7 9 9 10 12 17 13 15 15 13 12 10 8 7 6 6
0 0 2 4 5 2 1 3 10 13 7 9 9 9 9 9 9 9 10 10 11 13 12 11 11 9 8 10 7 8 11 19 19 19 19 12 15 15 11 9 9 9 8 6 6
1 1 1 4 3 2 3 7 14 9 9 7 8 9 10 9 9 9 10 11 10 11 12 14 15 11 10 9 11 10 11 18 22 22 19 12 18 14 8 7 7 7 7 6 6
1 3 4 4 4 2 6 11 10 8 7 9 9 11 10 10 10 10 10 11 11 11 13 14 13 10 10 9 9 10 13 10 16 15 19 16 13 10 8 8 8 8 7 7 7
4 5 6 4 2 4 8 10 8 6 6 7 10 9 11 10 11 10 11 10 11 10 10 11 15 11 11 9 8 10 9 14 15 21 21 15 14 15 11 10 9 9 9 7 7
4 8 4 2 3 6 11 10 7 6 6 8 9 9 9 10 10 10 11 10 9 10 10 11 13 13 11 12 12 11 12 11 12 14 19 19 16 10 10 9 9 8 9 8 8
6 11 4 1 8 9 11 8 6 6 6 7 7 7 8 9 10 10 10 10 9 10 12 11 13 15 13 11 10 11 12 12 15 16 14 15 15 8 8 8 8 8 9 8 7
9 8 3 3 12 12 10 9 7 7 7 8 8 7 7 8 10 9 9 8 9 10 11 11 13 16 15 13 11 13 12 12 13 13 15 17 15 8 7 8 7 8 8 8 8
10 13 8 6 7 10 11 10 9 6 6 7 7 7 8 9 8 10 10 9 9 9 8 9 13 14 16 14 13 14 12 13 14 16 14 14 14 10 9 9 8 8 9 9 8
8 12 10 13 11 9 9 9 9 9 7 7 8 8 9 10 10 10 9 10 10 8 10 11 14 12 12 12 13 13 13 13 15 14 16 13 12 11 9 8 8 7 6 8 8
9 11 10 11 11 10 9 10 9 9 8 9 9 8 8 10 9 11 10 10 11 11 11 11 14 14 14 12 12 14 13 12 13 13 13 12 12 9 8 7 7 7 6 7 8
5 5 8 11 12 11 12 10 9 8 7 7 7 8 9 8 7 7 7 8 9 11 12 13 14 14 16 13 13 15 13 12 12 11 12 14 12 9 9 7 7 7 6 6 7